Location: Austin
(30.3000°N, 97.7500°W)
Time: 04:03:22
(UTC-05:00)

Cosmos 2279 Rocket - Pass Details

Date: 01 October 2024
Orbit: 962 x 979 km, 82.9° (Epoch: 06 October)

Event Time Altitude Azimuth Distance (km) Brightness Sun altitude
Rises 19:44:26 0° 163° (SSE) 3,649 6.8 -7.1°
Reaches altitude 10° 19:47:05 10° 156° (SSE) 2,703 6.1 -7.6°
Maximum altitude 19:52:45 39° 90° (E) 1,417 4.4 -8.9°
Drops below altitude 10° 19:58:24 10° 23° (NNE) 2,705 6.1 -10.1°
Sets 20:01:03 0° 16° (NNE) 3,653 6.9 -10.7°
